When you browse on this site, cookies collect data to enhance your experience and personalize the content and advertising you see.
Visit our Privacy Policy to learn more. By continuing to use the site, you agree to this use of cookies and data.
  • In United Kingdom
  • List of Countries
  • For 7 days
  • Water Temperature
  • Weather Map
  • Weather Widgets
  • user-avatar
    Login

    Hourly Weather Sharapanivka

    Today, 18 October, Friday

    Time Temperature Precipitation Wind Pressure Humidity
    00:00 +13°C° 0 mm 0 mps 743 mmHg 63%
    01:00 +14°C° 0 mm 1 mps 743 mmHg 64%
    02:00 +14°C° 0 mm 1 mps 744 mmHg 65%
    03:00 +13°C° 0 mm 1 mps 743 mmHg 67%
    04:00 +13°C° 0 mm 1 mps 743 mmHg 69%
    05:00 +12°C° 0 mm 1 mps 743 mmHg 70%
    06:00 +13°C° 0 mm 1 mps 743 mmHg 68%
    07:00 +14°C° 0 mm 1 mps 744 mmHg 66%
    08:00 +14°C° 0 mm 1 mps 744 mmHg 63%
    09:00 +16°C° 0 mm 1 mps 744 mmHg 56%
    10:00 +19°C° 0 mm 1 mps 744 mmHg 49%
    11:00 +20°C° 0 mm 2 mps 744 mmHg 42%
    12:00 +21°C° 0 mm 2 mps 744 mmHg 40%
    13:00 +23°C° 0 mm 1 mps 743 mmHg 37%
    14:00 +24°C° 0 mm 1 mps 743 mmHg 35%
    15:00 +22°C° 0 mm 1 mps 743 mmHg 38%
    16:00 +21°C° 0 mm 1 mps 743 mmHg 42%
    17:00 +20°C° 0 mm 1 mps 742 mmHg 45%
    18:00 +19°C° 0 mm 1 mps 742 mmHg 48%
    19:00 +18°C° 0 mm 1 mps 743 mmHg 50%
    20:00 +16°C° 0 mm 1 mps 743 mmHg 53%
    21:00 +16°C° 0 mm 1 mps 743 mmHg 55%
    22:00 +15°C° 0 mm 1 mps 743 mmHg 56%
    23:00 +15°C° 0 mm 1 mps 743 mmHg 58%

    Tomorrow, 19 October, Saturday

    Time Temperature Precipitation Wind Pressure Humidity
    00:00 +14°C° 0 mm 1 mps 743 mmHg 59%
    01:00 +14°C° 0 mm 1 mps 743 mmHg 61%
    02:00 +14°C° 0 mm 1 mps 743 mmHg 62%
    03:00 +13°C° 0 mm 1 mps 743 mmHg 63%
    04:00 +13°C° 0 mm 1 mps 743 mmHg 65%
    05:00 +13°C° 0 mm 1 mps 743 mmHg 66%
    06:00 +14°C° 0 mm 1 mps 743 mmHg 65%
    07:00 +14°C° 0 mm 2 mps 743 mmHg 63%
    08:00 +15°C° 0 mm 2 mps 744 mmHg 62%
    09:00 +17°C° 0 mm 2 mps 744 mmHg 56%
    10:00 +19°C° 0 mm 3 mps 744 mmHg 49%
    11:00 +21°C° 0 mm 3 mps 744 mmHg 43%
    12:00 +22°C° 0 mm 3 mps 744 mmHg 41%
    13:00 +22°C° 0 mm 3 mps 744 mmHg 38%
    14:00 +24°C° 0 mm 3 mps 744 mmHg 36%
    15:00 +21°C° 0 mm 3 mps 743 mmHg 39%
    16:00 +20°C° 0 mm 2 mps 743 mmHg 42%
    17:00 +19°C° 0 mm 2 mps 743 mmHg 45%
    18:00 +18°C° 0 mm 2 mps 743 mmHg 48%
    19:00 +17°C° 0 mm 2 mps 743 mmHg 50%
    20:00 +16°C° 0 mm 2 mps 744 mmHg 52%
    21:00 +16°C° 0 mm 2 mps 744 mmHg 54%
    22:00 +15°C° 0 mm 2 mps 744 mmHg 55%
    23:00 +15°C° 0 mm 2 mps 744 mmHg 57%

    Day after tomorrow, 20 October, Sunday

    Time Temperature Precipitation Wind Pressure Humidity
    00:00 +14°C° 0 mm 2 mps 744 mmHg 59%
    01:00 +14°C° 0 mm 2 mps 744 mmHg 62%
    02:00 +14°C° 0 mm 2 mps 744 mmHg 64%
    03:00 +13°C° 0 mm 2 mps 744 mmHg 67%
    04:00 +13°C° 0 mm 2 mps 744 mmHg 70%
    05:00 +13°C° 0 mm 2 mps 744 mmHg 73%
    06:00 +12°C° 0 mm 3 mps 744 mmHg 73%
    07:00 +13°C° 0 mm 3 mps 745 mmHg 72%
    08:00 +13°C° 0 mm 3 mps 745 mmHg 71%
    09:00 +16°C° 0 mm 3 mps 745 mmHg 64%
    10:00 +18°C° 0 mm 3 mps 745 mmHg 57%
    11:00 +20°C° 0 mm 4 mps 745 mmHg 50%
    12:00 +20°C° 0 mm 4 mps 745 mmHg 46%
    13:00 +21°C° 0 mm 4 mps 745 mmHg 43%
    14:00 +22°C° 0 mm 4 mps 745 mmHg 40%
    15:00 +21°C° 0 mm 3 mps 745 mmHg 43%
    16:00 +20°C° 0 mm 3 mps 744 mmHg 46%
    17:00 +18°C° 0 mm 2 mps 744 mmHg 50%
    18:00 +18°C° 0 mm 2 mps 745 mmHg 52%
    19:00 +17°C° 0 mm 2 mps 745 mmHg 54%
    20:00 +16°C° 0 mm 2 mps 745 mmHg 55%
    21:00 +16°C° 0 mm 2 mps 745 mmHg 57%
    22:00 +15°C° 0 mm 2 mps 745 mmHg 58%
    23:00 +15°C° 0 mm 2 mps 745 mmHg 59%

    21 October, Monday

    Time Temperature Precipitation Wind Pressure Humidity
    00:00 +15°C° 0 mm 2 mps 745 mmHg 60%
    01:00 +14°C° 0 mm 2 mps 745 mmHg 61%
    02:00 +14°C° 0 mm 2 mps 745 mmHg 62%
    03:00 +14°C° 0 mm 2 mps 745 mmHg 64%
    04:00 +12°C° 0 mm 3 mps 745 mmHg 66%
    05:00 +12°C° 0 mm 3 mps 745 mmHg 68%
    06:00 +13°C° 0 mm 3 mps 745 mmHg 67%
    07:00 +13°C° 0 mm 3 mps 745 mmHg 66%
    08:00 +14°C° 0 mm 3 mps 746 mmHg 65%
    09:00 +17°C° 0 mm 3 mps 746 mmHg 58%
    10:00 +19°C° 0 mm 4 mps 746 mmHg 51%
    11:00 +21°C° 0 mm 4 mps 746 mmHg 44%
    12:00 +22°C° 0 mm 4 mps 746 mmHg 42%
    13:00 +22°C° 0 mm 4 mps 745 mmHg 39%
    14:00 +23°C° 0 mm 4 mps 745 mmHg 37%
    15:00 +22°C° 0 mm 4 mps 745 mmHg 40%
    16:00 +21°C° 0 mm 3 mps 745 mmHg 43%
    17:00 +19°C° 0 mm 3 mps 744 mmHg 46%
    18:00 +18°C° 0 mm 3 mps 744 mmHg 48%
    19:00 +18°C° 0 mm 3 mps 745 mmHg 50%
    20:00 +17°C° 0 mm 3 mps 745 mmHg 51%
    21:00 +16°C° 0 mm 3 mps 745 mmHg 52%
    22:00 +16°C° 0 mm 3 mps 745 mmHg 52%
    23:00 +14°C° 0 mm 3 mps 745 mmHg 52%

    22 October, Tuesday

    Time Temperature Precipitation Wind Pressure Humidity
    00:00 +14°C° 0 mm 3 mps 745 mmHg 55%
    01:00 +15°C° 0 mm 2 mps 745 mmHg 57%
    02:00 +14°C° 0 mm 2 mps 745 mmHg 59%
    03:00 +14°C° 0 mm 2 mps 745 mmHg 61%
    04:00 +14°C° 0 mm 2 mps 745 mmHg 64%
    05:00 +13°C° 0 mm 1 mps 745 mmHg 67%
    06:00 +14°C° 0 mm 1 mps 745 mmHg 65%
    07:00 +14°C° 0 mm 1 mps 745 mmHg 64%
    08:00 +15°C° 0 mm 1 mps 745 mmHg 63%
    09:00 +17°C° 0 mm 2 mps 745 mmHg 59%
    10:00 +19°C° 0 mm 2 mps 746 mmHg 55%
    11:00 +21°C° 0 mm 3 mps 746 mmHg 52%
    12:00 +21°C° 0 mm 3 mps 746 mmHg 51%
    13:00 +22°C° 0 mm 4 mps 746 mmHg 51%
    14:00 +22°C° 0 mm 4 mps 746 mmHg 51%
    15:00 +21°C° 0 mm 4 mps 745 mmHg 56%
    16:00 +20°C° 0 mm 3 mps 745 mmHg 61%
    17:00 +18°C° 0 mm 3 mps 745 mmHg 66%
    18:00 +17°C° 0 mm 3 mps 746 mmHg 67%
    19:00 +17°C° 0 mm 3 mps 746 mmHg 67%
    20:00 +16°C° 0 mm 3 mps 746 mmHg 67%
    21:00 +14°C° 0 mm 4 mps 747 mmHg 68%
    22:00 +13°C° 0 mm 4 mps 747 mmHg 69%
    23:00 +12°C° 0 mm 4 mps 747 mmHg 70%

    23 October, Wednesday

    Time Temperature Precipitation Wind Pressure Humidity
    00:00 +12°C° 0 mm 4 mps 747 mmHg 74%
    01:00 +11°C° 0 mm 3 mps 748 mmHg 77%
    02:00 +10°C° 0 mm 3 mps 748 mmHg 80%
    03:00 +9°C° 0 mm 3 mps 748 mmHg 82%
    04:00 +9°C° 0 mm 3 mps 748 mmHg 84%
    05:00 +8°C° 0 mm 3 mps 748 mmHg 86%
    06:00 +8°C° 0 mm 3 mps 749 mmHg 85%
    07:00 +9°C° 0 mm 3 mps 749 mmHg 84%
    08:00 +9°C° 0 mm 3 mps 749 mmHg 84%
    09:00 +11°C° 0 mm 3 mps 749 mmHg 76%
    10:00 +12°C° 0 mm 3 mps 749 mmHg 68%
    11:00 +14°C° 0 mm 3 mps 749 mmHg 60%
    12:00 +16°C° 0 mm 3 mps 749 mmHg 55%
    13:00 +16°C° 0 mm 2 mps 748 mmHg 51%
    14:00 +17°C° 0 mm 2 mps 748 mmHg 46%
    15:00 +16°C° 0 mm 2 mps 748 mmHg 50%
    16:00 +15°C° 0 mm 2 mps 748 mmHg 53%
    17:00 +14°C° 0 mm 2 mps 748 mmHg 56%
    18:00 +13°C° 0 mm 2 mps 748 mmHg 59%
    19:00 +12°C° 0 mm 2 mps 748 mmHg 62%
    20:00 +10°C° 0 mm 2 mps 748 mmHg 65%
    21:00 +10°C° 0 mm 2 mps 748 mmHg 67%
    22:00 +9°C° 0 mm 2 mps 748 mmHg 69%
    23:00 +9°C° 0 mm 2 mps 748 mmHg 72%
    Show more